DIAMANT R/B, 1805

Orbit data source: Space-Track

DIAMANT R/B, 1805 is space debris in LEO originally from a launch on Fri, 26 Nov 1965 UTC launched from the Hamma Guira Space Track Range (HGSTR). Debris objects in space refer to the collection of defunct objects orbiting the Earth. Examples of debris include non-operational satellites, rocket bodies, and fragments generated from explosions, collisions, or faulty payload assembly.

Loading next visibility...
Identifier
1805, 1965-096B
Orbit
LEO
Last TLE update
10 hours ago
Origin
Manufacturer
Sud
Mission
Spacecraft
Bus & Motor
RUBIS, Unknown motor
Mass
65 kg wet, 65 kg dry
Launch date (UTC)
1965-11-26 (60 years ago)
Launch vehicle
Unknown
Launch site
Hamma Guira Space Track Range (HGSTR)
Object type
Payload
Rocket body
Debris
Shape & HBR
Cyl, 2.1 m
Radar Cross Section
1.347 m², Large (>1 m²)

Expand to show TLE details & history

TLE from 10 hours ago
0 DIAMANT R/B
1 01805U 65096B   25183.77763323  .00000491  00000-0  10410-3 0  9990
2 01805  34.2500 353.8351 0589303 341.1759  16.7931 13.86465039956165
Epoch: 2025-07-02T18:39Z
TLE epoch observation values (Epoch: 2025-07-02T18:39:47.511Z)
Latitude
0.00003°
Longitude
152.83332°
Altitude
529.422 km
Speed
7.81 km/s
True Right ascension
23h 35m 20s
True Declination
0° 00' 00"
Sunlit
Object was in daylight at epoch
Visualization orbit readout
Latitude
-34.39088°
Longitude
61.33124°
Altitude
806.412 km
Speed
7.524 km/s
Apparent Right ascension
20h 41m 54s
Apparent Declination
-77° 09' 44"
Sunlit
Object is in full shadow
Visualization observer readout
Local Sidereal Time
16:24:03
Azimuth
166.086° S
Elevation
-33.515°
Doppler factor
1
Orbital elements
Apogee altitude
1,375.735 km
Perigee altitude
512.717 km
Semi-major axis
7,322.363 km
Eccentricity
0.05893
Inclination
34.25°
RAAN
353.8351°
Arg. of periapsis
341.1759°
True anomaly
Unknown
Mean anomaly
16.7931°
Eccentric anomaly
Unknown
Mean motion
3.46391 °/min
Orbital period
103.93 mins
BSTAR
0.0001041
Loading maneuver chart data...
Loading SW <> Apogee altitude chart data...
Loading historical data...
Loading historical data...
Loading historical data...
Loading historical data...
Loading historical data...
Loading historical data...
Loading historical data...
Other satellites on launch #96 in the year 1965 (1965-11-26 UTC)

DIAMANT R/B Visibility forecast

Observer location: undefined°, undefined°

Span
Click to sort rows by Start time (UTC) header in descending order
Start Az.
Max El. time (UTC)
Max El. Az.
Max El.
End time (UTC)
End Az.
9 mins2025-07-03 15:39:40.670Z218.121° SW2025-07-03 15:42:40.670Z171.773° S30.59°2025-07-03 15:48:40.670Z98.154° ESE
11 mins2025-07-03 17:28:40.670Z247.882° W2025-07-03 17:32:40.670Z184.954° SSW38.71°2025-07-03 17:39:40.670Z105.598° ESE
12 mins2025-07-03 19:17:40.670Z258.775° W2025-07-03 19:22:40.670Z200.721° SSW34.198°2025-07-03 19:29:40.670Z130.015° SE
10 mins2025-07-03 21:08:40.670Z247.212° WSW2025-07-03 21:12:40.670Z211.647° SW20.874°2025-07-03 21:18:40.670Z164.799° S
|